| time (UTC) | temp C | wind direction | speed KPH | gust KPH | rain 1hr cm | rain 24hr cm | rain mn cm | humidity % | barometer mb |
| 20260505010048 | 21 | 246 | 0.0 | 3.2 | 0.00 | 0.00 | 0.00 | 55 | 1021.2 |
| 20260505004547 | 21 | 217 | 3.2 | 8.0 | 0.00 | 0.00 | 0.00 | 53 | 1021.2 |
| 20260505003045 | 21 | 253 | 0.0 | 8.0 | 0.00 | 0.00 | 0.00 | 53 | 1021.2 |
| 20260505001550 | 22 | 160 | 0.0 | 8.0 | 0.00 | 0.00 | 0.00 | 52 | 1021.3 |
| 20260505000051 | 22 | 245 | 3.2 | 9.7 | 0.00 | 0.00 | 0.00 | 54 | 1021.4 |
| 20260504234546 | 22 | 238 | 3.2 | 9.7 | 0.00 | 0.00 | 0.00 | 55 | 1021.7 |
| 20260504233039 | 22 | 238 | 0.0 | 3.2 | 0.00 | 0.00 | 0.00 | 55 | 1021.8 |
| 20260504231554 | 22 | 51 | 0.0 | 6.4 | 0.00 | 0.00 | 0.00 | 54 | 1021.8 |
| 20260504230037 | 22 | 287 | 1.6 | 8.0 | 0.00 | 0.00 | 0.00 | 52 | 1021.9 |
| 20260504224538 | 22 | 248 | 0.0 | 12.9 | 0.00 | 0.00 | 0.00 | 53 | 1022.1 |
| 20260504223034 | 22 | 174 | 0.0 | 11.3 | 0.00 | 0.00 | 0.00 | 55 | 1022.6 |
| 20260504221535 | 22 | 266 | 0.0 | 3.2 | 0.00 | 0.00 | 0.00 | 56 | 1022.5 |
| 20260504220035 | 21 | 215 | 0.0 | 6.4 | 0.00 | 0.00 | 0.00 | 58 | 1022.5 |
| 20260504214530 | 21 | 280 | 3.2 | 11.3 | 0.00 | 0.00 | 0.00 | 57 | 1022.7 |
| 20260504213028 | 22 | 260 | 3.2 | 14.5 | 0.00 | 0.00 | 0.00 | 55 | 1023.1 |
| 20260504211528 | 21 | 217 | 3.2 | 11.3 | 0.00 | 0.00 | 0.00 | 57 | 1023.0 |
| 20260504210027 | 21 | 227 | 3.2 | 9.7 | 0.00 | 0.00 | 0.00 | 60 | 1023.4 |
| 20260504204525 | 20 | 242 | 1.6 | 6.4 | 0.00 | 0.00 | 0.00 | 63 | 1023.0 |
| 20260504203030 | 20 | 233 | 3.2 | 11.3 | 0.00 | 0.00 | 0.00 | 62 | 1024.2 |
| 20260504201522 | 20 | 226 | 0.0 | 17.7 | 0.00 | 0.00 | 0.00 | 64 | 1024.4 |
| 20260504200024 | 20 | 203 | 1.6 | 16.1 | 0.00 | 0.00 | 0.00 | 65 | 1024.2 |
| 20260504194533 | 20 | 56 | 0.0 | 9.7 | 0.00 | 0.00 | 0.00 | 64 | 1024.1 |
| 20260504193021 | 20 | 73 | 1.6 | 8.0 | 0.00 | 0.00 | 0.00 | 64 | 1024.6 |
| 20260504191520 | 20 | 240 | 0.0 | 12.9 | 0.00 | 0.00 | 0.00 | 64 | 1025.0 |
| 20260504190020 | 20 | 278 | 4.8 | 19.3 | 0.00 | 0.00 | 0.00 | 63 | 1025.3 |
| 20260504184520 | 21 | 244 | 3.2 | 16.1 | 0.00 | 0.00 | 0.00 | 58 | 1025.1 |
| 20260504183018 | 21 | 235 | 6.4 | 16.1 | 0.00 | 0.00 | 0.00 | 57 | 1025.1 |
| 20260504181518 | 22 | 225 | 6.4 | 16.1 | 0.00 | 0.00 | 0.00 | 56 | 1024.8 |
| 20260504180019 | 22 | 232 | 3.2 | 9.7 | 0.00 | 0.00 | 0.00 | 58 | 1024.5 |
| 20260504174514 | 21 | 297 | 4.8 | 14.5 | 0.00 | 0.00 | 0.00 | 58 | 1024.3 |
| 20260504173017 | 21 | 49 | 4.8 | 16.1 | 0.00 | 0.00 | 0.00 | 57 | 1024.6 |
| 20260504171510 | 21 | 4 | 4.8 | 16.1 | 0.00 | 0.00 | 0.00 | 57 | 1024.9 |
| 20260504081548 | 8 | 261 | 0.0 | 1.6 | 0.00 | 0.00 | 0.00 | 79 | 1027.9 |
| 20260504050018 | 10 | 236 | 0.0 | 3.2 | 0.00 | 0.00 | 0.00 | 67 | 1029.8 |
| 20260504044515 | 11 | 245 | 0.0 | 3.2 | 0.00 | 0.00 | 0.00 | 66 | 1029.9 |
| 20260504043013 | 11 | 276 | 0.0 | 4.8 | 0.00 | 0.00 | 0.00 | 66 | 1030.0 |
| 20260504041512 | 11 | 263 | 0.0 | 1.6 | 0.00 | 0.00 | 0.00 | 67 | 1030.1 |
| 20260504040010 | 11 | 294 | 0.0 | 1.6 | 0.00 | 0.00 | 0.00 | 70 | 1030.2 |
| 20260504034508 | 11 | 296 | 0.0 | 1.6 | 0.00 | 0.00 | 0.00 | 70 | 1030.3 |
| 20260504033007 | 10 | 300 | 0.0 | 1.6 | 0.00 | 0.00 | 0.00 | 75 | 1030.4 |
| 20260504031507 | 10 | 44 | 0.0 | 0.0 | 0.00 | 0.00 | 0.00 | 80 | 1030.4 |
| 20260504030006 | 10 | 44 | 0.0 | 0.0 | 0.00 | 0.00 | 0.00 | 80 | 1030.7 |
| 20260504024506 | 10 | 44 | 0.0 | 0.0 | 0.00 | 0.00 | 0.00 | 79 | 1030.7 |
| 20260504023006 | 10 | 44 | 0.0 | 0.0 | 0.00 | 0.00 | 0.00 | 80 | 1030.9 |
| 20260504021505 | 10 | 44 | 0.0 | 0.0 | 0.00 | 0.00 | 0.00 | 80 | 1030.9 |
| 20260504020005 | 10 | 44 | 0.0 | 0.0 | 0.00 | 0.00 | 0.00 | 80 | 1031.0 |
| 20260504014510 | 10 | 44 | 0.0 | 0.0 | 0.00 | 0.00 | 0.00 | 78 | 1030.8 |
| 20260504013006 | 10 | 44 | 0.0 | 0.0 | 0.00 | 0.00 | 0.00 | 77 | 1030.7 |
| 20260504011504 | 11 | 44 | 0.0 | 0.0 | 0.00 | 0.00 | 0.00 | 76 | 1030.7 |